Vertical_Velocity
1 -0 -2 -4 0 3 -1 4 -2 -5 -1 5 -1 0 -2 -1 -0 -0 -3 -1 1 3 1 3 2 4 2 -2 -3 -1 -1 -3 -4 -6 -9 -5 -2 0 4 -7 -2 -4 0 4
-5 2 1 -6 -2 3 0 1 -6 2 -16 1 -2 -3 -3 -2 -1 -0 -2 -3 -3 -4 -4 -4 -6 -2 -2 -1 -1 -1 -2 2 3 -0 4 0 2 5 -2 -1 -11 -3 6 3
-3 0 0 -3 -3 4 2 4 -1 -4 -2 -3 -1 -1 0 -5 -2 -3 -0 -1 -4 -4 -4 -0 1 -4 -5 -1 -1 -2 -3 -5 -3 -7 -7 -9 -11 -8 -4 2 3 -2 -3 -0
-2 0 -5 -0 -2 -0 -2 3 -1 -2 -2 -2 -1 -2 -1 1 -4 0 -0 -2 0 -1 -2 -3 -2 -1 -1 -4 -2 -4 -3 1 -2 -1 -1 -3 -4 -8 -4 -4 -2 -1 1 4
-1 -1 -10 -7 4 -1 -3 -7 -0 -0 2 -0 -0 -6 -0 -3 2 -2 -1 -1 -1 -2 -1 -0 -1 -2 -1 -1 -2 -2 -0 -2 -1 -3 -3 -2 -2 -6 -5 3 -4 -3 -1 0
2 -0 -3 -2 -2 -0 -3 -28 2 -1 1 1 0 -6 -7 -0 1 2 -1 -3 -1 -1 -0 -0 -2 -1 -2 -2 -2 -1 -2 -0 -2 3 -4 -3 -4 -2 2 -2 -4 -4 -1 -1
8 1 -10 -1 10 3 3 -17 -4 -2 2 -2 -6 3 -4 -0 0 -1 -4 -1 -1 -3 -2 -3 -1 -1 -4 -2 -0 -2 -1 0 -2 -1 -1 2 -3 -5 -1 -2 -3 -9 -4 -0
8 -0 -20 -9 -5 -8 14 -3 1 -1 1 -1 -5 -5 -2 -3 -4 -3 -1 3 1 1 -2 -0 -2 -3 -2 -2 -2 -1 -1 -0 1 -1 3 -4 -5 0 2 -1 -1 -1 -4 -3
-5 -12 9 1 3 -1 -0 1 -0 -0 3 2 -2 -7 7 2 -2 -2 -2 2 -0 0 1 -1 -0 -2 -1 -1 -2 1 -1 2 1 2 2 -3 -3 0 1 -1 -0 -1 -3 -1
13 -17 -4 10 6 4 7 1 -2 3 -1 2 -3 -2 -2 4 -2 -1 -2 -0 -1 1 1 -0 2 1 -1 -0 -1 -3 -0 0 1 -4 -2 -1 2 -1 -4 -6 -2 -2 0 2
-7 -8 8 7 5 5 5 2 -0 0 1 2 3 -5 2 2 -0 -1 -0 -0 0 1 0 -1 -0 -0 0 1 0 2 -0 -6 -5 -0 -1 0 -0 -4 0 0 -9 -6 -4 -1
-13 3 2 -5 1 4 -6 3 7 -0 -3 3 2 -2 2 1 -0 -1 -0 0 1 0 1 -1 -3 -1 -2 -1 -0 -2 -2 -1 -1 -5 -7 -5 -4 -0 4 0 0 -3 -5 -7
-10 2 3 3 -7 2 -6 -2 -3 -3 1 -5 0 4 3 2 1 1 0 -2 -3 0 0 -1 0 -1 -4 -2 -2 -2 -3 0 -2 -2 -3 -6 -5 -4 -7 11 1 3 -2 -3
-2 -0 -11 9 -13 -0 -0 2 1 -2 2 -1 3 2 3 1 -0 -0 0 -2 -1 0 -1 -0 -1 1 -2 -2 -1 -1 -2 -3 -4 -0 -1 -6 -5 -6 -6 -8 -5 9 6 -2
4 4 -4 -10 -3 -2 -0 2 -2 -3 -0 1 5 1 1 -1 -0 -2 -2 -0 -0 -1 -1 -1 -1 3 1 -1 -2 -1 -2 -0 -1 -1 1 1 -2 -0 -2 -3 -2 -1 4 11
-8 -1 2 2 -3 -4 -0 -0 -3 0 -0 7 5 3 3 -2 -2 -1 -1 -2 0 2 -2 -3 -0 -1 0 -1 -1 -1 0 2 0 -1 -1 -1 -0 -3 -2 -3 -2 -2 -0 -0
-3 -10 1 4 2 2 -1 0 1 -1 -0 -1 3 -4 3 0 -1 -1 -1 -2 -1 -0 -3 -2 0 -0 -3 -2 -2 -3 -1 -1 -0 0 0 -1 -0 -0 -0 -1 -1 2 1 -2
1 1 2 -6 -1 3 5 0 2 1 -0 -1 0 0 -1 -0 0 1 3 0 0 2 -5 -2 -1 0 0 -2 -1 -1 -2 -1 -1 -1 -1 -1 -1 -2 -3 -3 -3 -5 -0 0
-4 -0 0 -1 -3 4 -2 4 5 4 3 15 35 3 1 1 2 4 -1 1 1 -3 8 2 -2 -2 -0 1 -3 -1 -2 -2 -1 -1 -1 -0 1 1 -2 -1 -1 -0 -2 -1
7 8 1 12 8 2 6 2 -1 6 4 -6 3 -2 -3 -1 -0 0 1 1 3 -4 -0 1 -2 -2 -3 -2 0 0 -1 -1 -1 -1 -1 -1 -1 -0 1 -0 -1 -1 -1 -3
-0 -0 0 -2 3 1 2 2 -4 -8 -2 -5 4 5 -2 2 -2 -3 0 -3 14 1 1 2 -4 -5 1 -3 -2 -0 -1 -1 -1 -2 -1 0 -0 0 0 1 1 -0 -2 0
-8 -7 -9 -7 -7 -2 -6 -5 -8 -6 -4 -7 -10 -10 -13 -9 -6 -1 -1 -12 4 -2 -5 3 1 -3 -3 -3 -1 -1 -1 0 -0 -1 -1 0 -0 -1 -0 -0 -1 -0 -0 -1
-1 -9 -7 -2 -7 -7 -2 -0 -2 -2 -3 -3 -1 -2 -5 -2 3 -8 -2 8 1 2 1 0 0 -1 -3 -1 -2 -1 -0 -1 -0 -0 -0 1 0 0 -1 -1 -0 -0 -1 -2
-1 1 -5 0 -1 1 -4 8 -2 1 1 3 1 3 -0 -2 4 1 -7 -3 -4 -7 -2 -0 -2 -4 -3 -1 -1 -1 0 -0 0 -1 0 0 -0 -1 0 1 1 2 -0 -1
-1 -8 -5 8 2 -5 -3 3 -2 8 8 -4 1 4 2 -1 -6 4 -1 1 3 -5 -1 4 4 -2 -1 0 -0 0 0 0 -0 -1 1 0 -0 -0 0 0 1 0 0 1
-3 -6 -3 2 -5 -5 -7 -2 -8 1 4 -3 2 2 -4 6 -2 -3 -1 1 -3 4 -5 -2 2 -1 0 -1 -1 -0 -0 0 -0 0 -0 -1 -1 0 -1 1 0 -0 -0 0
-3 1 -2 -5 10 0 -2 1 -6 -2 5 3 2 1 -0 1 1 -1 -3 1 5 1 -2 1 1 0 -1 -2 -1 0 -0 -0 -0 -2 -1 -3 -0 -1 -0 1 1 1 1 0
Height
3135 3134 3133 3133 3132 3132 3131 3130 3128 3125 3124 3121 3118 3115 3110 3107 3104 3101 3097 3094 3090 3087 3083 3080 3078 3074 3069 3065 3062 3058 3053 3049 3045 3039 3035 3034 3033 3033 3034 3041 3044 3047 3051 3052
3129 3129 3127 3124 3125 3124 3123 3123 3121 3121 3118 3117 3115 3113 3110 3106 3102 3098 3095 3091 3088 3085 3081 3078 3075 3071 3066 3062 3058 3053 3050 3046 3041 3037 3031 3026 3023 3021 3021 3023 3029 3034 3035 3035
3126 3125 3123 3120 3114 3115 3117 3117 3117 3116 3115 3113 3112 3110 3107 3103 3099 3095 3092 3088 3085 3082 3078 3075 3071 3068 3064 3059 3055 3051 3046 3040 3036 3033 3028 3022 3016 3013 3012 3012 3012 3016 3018 3021
3125 3124 3123 3112 3110 3110 3111 3112 3112 3111 3111 3110 3108 3105 3103 3100 3096 3092 3088 3084 3081 3077 3074 3071 3067 3064 3060 3056 3052 3047 3043 3038 3033 3030 3026 3022 3017 3011 3007 3006 3003 3002 3005 3007
3124 3120 3114 3108 3108 3108 3107 3108 3108 3106 3105 3104 3103 3100 3100 3096 3093 3089 3085 3080 3076 3072 3069 3065 3062 3058 3055 3052 3048 3044 3040 3035 3031 3027 3022 3018 3014 3010 3005 3002 2998 2997 2996 2997
3119 3118 3115 3106 3105 3104 3103 3100 3101 3099 3099 3099 3097 3095 3093 3091 3088 3084 3080 3076 3071 3068 3064 3060 3057 3053 3049 3046 3043 3040 3036 3032 3027 3022 3018 3013 3009 3005 3001 2997 2994 2990 2988 2987
3112 3112 3106 3104 3105 3102 3104 3101 3096 3096 3095 3094 3092 3091 3087 3084 3082 3078 3074 3070 3066 3062 3059 3055 3051 3048 3045 3042 3038 3035 3031 3028 3023 3019 3015 3010 3006 3001 2997 2994 2990 2987 2981 2979
3109 3110 3103 3099 3100 3099 3097 3093 3092 3091 3090 3087 3085 3085 3082 3079 3077 3073 3070 3066 3062 3058 3054 3050 3047 3043 3040 3037 3034 3030 3026 3023 3019 3014 3010 3006 3002 2997 2992 2989 2985 2981 2978 2974
3102 3097 3095 3094 3092 3092 3090 3087 3086 3083 3082 3081 3077 3077 3077 3074 3071 3068 3064 3061 3058 3054 3050 3046 3042 3038 3035 3032 3029 3025 3022 3018 3014 3010 3006 3002 2997 2993 2988 2983 2979 2976 2972 2968
3092 3089 3088 3088 3086 3084 3082 3077 3076 3074 3071 3071 3069 3069 3069 3067 3065 3062 3058 3055 3053 3049 3045 3041 3038 3034 3030 3027 3024 3021 3017 3013 3010 3005 3001 2996 2993 2988 2984 2978 2974 2970 2966 2963
3081 3081 3078 3077 3075 3072 3069 3067 3065 3063 3060 3059 3060 3060 3061 3060 3058 3055 3052 3049 3046 3043 3040 3037 3033 3028 3024 3021 3018 3014 3011 3008 3003 2999 2995 2990 2986 2982 2978 2974 2968 2963 2958 2954
3072 3073 3068 3065 3065 3063 3060 3058 3057 3054 3051 3052 3052 3052 3053 3052 3051 3049 3046 3043 3040 3037 3034 3031 3027 3022 3018 3013 3009 3005 3002 2999 2996 2992 2987 2982 2978 2974 2971 2968 2964 2959 2953 2947
3065 3064 3060 3057 3055 3054 3050 3048 3047 3045 3044 3042 3045 3046 3046 3046 3043 3041 3039 3036 3033 3030 3027 3023 3020 3016 3011 3006 3001 2996 2991 2987 2985 2982 2978 2974 2970 2964 2960 2959 2954 2951 2947 2943
3060 3057 3052 3051 3046 3046 3043 3042 3040 3038 3036 3036 3039 3039 3039 3038 3036 3034 3032 3029 3026 3023 3020 3016 3013 3009 3004 2999 2993 2987 2981 2976 2971 2968 2965 2963 2959 2955 2950 2945 2941 2940 2937 2934
3055 3052 3046 3044 3042 3039 3035 3033 3032 3031 3030 3032 3033 3033 3032 3031 3029 3027 3025 3022 3019 3017 3013 3010 3006 3002 2997 2991 2985 2978 2972 2966 2960 2956 2953 2949 2946 2943 2939 2935 2931 2927 2925 2924
3047 3044 3040 3036 3034 3033 3029 3027 3027 3027 3027 3028 3027 3026 3024 3024 3023 3020 3018 3015 3013 3010 3006 3002 2998 2993 2988 2982 2977 2970 2965 2958 2952 2947 2942 2939 2935 2931 2928 2925 2922 2918 2915 2912
3037 3035 3032 3028 3026 3025 3023 3021 3020 3021 3021 3021 3020 3019 3018 3017 3015 3013 3011 3008 3005 3003 2999 2993 2989 2985 2980 2974 2968 2962 2956 2950 2944 2938 2933 2929 2925 2921 2918 2915 2913 2911 2908 2905
3035 3029 3025 3020 3016 3015 3016 3014 3013 3013 3014 3013 3012 3011 3011 3009 3007 3006 3004 3001 2998 2995 2991 2987 2982 2977 2972 2967 2960 2954 2948 2942 2936 2929 2924 2920 2915 2912 2909 2907 2905 2902 2900 2897
3029 3025 3020 3014 3010 3007 3008 3007 3006 3006 3006 3006 3003 3003 3003 3002 3000 2998 2996 2993 2990 2986 2983 2979 2974 2969 2964 2959 2952 2946 2940 2934 2927 2921 2915 2911 2906 2902 2900 2898 2896 2894 2892 2889
3026 3022 3017 3012 3009 3005 3003 3001 3000 2999 2999 2998 2998 2998 2998 2996 2994 2991 2989 2986 2982 2978 2974 2969 2965 2960 2955 2950 2944 2937 2931 2925 2919 2913 2907 2901 2897 2894 2891 2889 2886 2884 2882 2880
3022 3019 3016 3012 3009 3005 3002 3001 2998 2995 2994 2994 2994 2992 2991 2989 2987 2984 2981 2977 2974 2969 2964 2960 2955 2950 2944 2940 2935 2928 2921 2915 2909 2904 2898 2892 2888 2884 2881 2879 2877 2874 2872 2869
3019 3015 3012 3009 3007 3005 3001 2999 2996 2994 2992 2991 2989 2986 2983 2981 2978 2975 2971 2968 2963 2959 2954 2949 2944 2939 2933 2929 2925 2919 2912 2905 2900 2894 2889 2884 2879 2875 2872 2869 2867 2864 2861 2858
3013 3011 3007 3003 3001 2999 2996 2993 2990 2987 2984 2981 2978 2975 2973 2971 2967 2964 2961 2957 2952 2948 2943 2938 2933 2928 2923 2919 2914 2909 2902 2896 2890 2885 2880 2875 2871 2867 2864 2861 2858 2854 2851 2848
3006 3003 2999 2996 2992 2988 2985 2982 2978 2976 2972 2968 2966 2963 2960 2958 2955 2952 2948 2944 2940 2936 2932 2928 2923 2917 2913 2908 2903 2898 2892 2886 2881 2876 2871 2867 2863 2859 2856 2853 2850 2846 2842 2838
2997 2993 2990 2986 2982 2979 2975 2971 2966 2964 2961 2958 2956 2953 2949 2946 2944 2942 2939 2935 2930 2926 2921 2917 2913 2908 2903 2898 2893 2888 2882 2877 2872 2867 2862 2858 2855 2852 2848 2845 2841 2837 2832 2828
2987 2983 2979 2975 2971 2967 2963 2959 2954 2952 2949 2946 2945 2942 2940 2938 2934 2932 2928 2924 2920 2916 2912 2908 2903 2899 2893 2888 2883 2878 2873 2868 2863 2859 2854 2851 2847 2844 2840 2836 2832 2827 2822 2817
2977 2974 2969 2965 2962 2956 2951 2947 2943 2941 2939 2936 2934 2932 2930 2928 2925 2922 2919 2915 2911 2907 2903 2898 2894 2889 2883 2879 2874 2869 2864 2860 2855 2850 2847 2843 2840 2836 2832 2827 2823 2818 2813 2806